Location: Buttermere
(51.3333°N, 1.5167°W)
Time: 17:25:43
(UTC+00:00)

CZ-4 R/B - Pass Details

Date: 18 September 2020
Orbit: 530 x 600 km, 97.7° (Epoch: 30 October)

Event Time Altitude Azimuth Distance (km) Brightness Sun altitude
Rises 18:44:53 0° 174° (S) 2,837 4.8 -5.8°
Reaches altitude 10° 18:47:04 10° 178° (S) 1,940 4.0 -6.2°
Maximum altitude 18:51:15 59° 259° (WSW) 694 2.2 -6.8°
Drops below altitude 10° 18:55:26 10° 340° (NNW) 1,942 4.6 -7.5°
Sets 18:57:37 0° 344° (NNW) 2,841 5.4 -7.8°
